CW1138 Weather Reports


Display with metric or nautical units.
time (UTC)temp
F
wind
direction
speed
MPH
gust
MPH
rain 1hr
in
rain 24hr
in
rain mn
in
humidity
%
barometer
mb
20190118225704 43 240 0.0 0.0 0.00 0.00 0.00 72 1020.7
20190118225200 43 240 0.0 0.0 0.00 0.00 0.00 72 1020.7
20190118224700 43 240 0.0 3.0 0.00 0.00 0.00 72 1020.7
20190118223700 43 174 0.0 0.0 0.00 0.00 0.00 72 1020.7
20190118222700 43 216 0.0 0.0 0.00 0.00 0.00 72 1020.7
20190118222200 43 227 3.0 3.0 0.00 0.00 0.00 73 1020.7
20190118221700 44 195 0.0 0.0 0.00 0.00 0.00 72 1020.6
20190118215159 43 230 0.0 0.0 0.00 0.00 0.00 75 1020.7
20190118214659 43 230 0.0 1.0 0.00 0.00 0.00 75 1020.9
20190118214159 42 230 0.0 0.0 0.00 0.00 0.00 76 1020.9
20190118213159 42 217 0.0 0.0 0.00 0.00 0.00 76 1020.8
20190118212659 42 246 0.0 0.0 0.00 0.00 0.00 76 1020.8
20190118211659 42 199 0.0 1.0 0.00 0.00 0.00 77 1020.9
20190118211159 42 198 0.0 2.0 0.00 0.00 0.00 76 1020.9
20190118205158 42 239 0.0 0.0 0.00 0.00 0.00 77 1020.8
20190118204658 42 240 0.0 0.0 0.00 0.00 0.00 78 1021.1
20190118203158 41 223 0.0 0.0 0.00 0.00 0.00 78 1021.1
20190118202658 41 217 0.0 0.0 0.00 0.00 0.00 79 1021.1
20190118202158 41 217 0.0 0.0 0.00 0.00 0.00 80 1021.1
20190118201658 41 217 0.0 0.0 0.00 0.00 0.00 80 1021.0
20190118201158 41 227 0.0 0.0 0.00 0.00 0.00 81 1021.0
20190118200658 41 226 0.0 0.0 0.00 0.00 0.00 81 1021.0
20190118200158 41 226 0.0 0.0 0.00 0.00 0.00 81 1021.0
20190118195658 40 230 0.0 0.0 0.00 0.00 0.00 81 1021.0
20190118194658 40 229 0.0 0.0 0.00 0.00 0.00 82 1021.0
20190118194157 40 229 0.0 0.0 0.00 0.00 0.00 82 1021.0
20190118193157 40 229 0.0 0.0 0.00 0.00 0.00 82 1021.2
20190118192658 40 198 0.0 0.0 0.00 0.00 0.00 82 1021.2
20190118191157 40 191 0.0 3.0 0.00 0.00 0.00 82 1021.1
20190118190657 40 210 3.0 3.0 0.00 0.00 0.00 82 1021.1
20190118190156 40 195 0.0 0.0 0.00 0.00 0.00 82 1021.1
20190118185656 40 199 3.0 6.0 0.00 0.00 0.00 82 1021.1
20190118185156 40 229 0.0 0.0 0.00 0.00 0.00 82 1021.1
20190118184656 40 229 0.0 1.0 0.00 0.00 0.00 82 1021.0
20190118184156 40 265 0.0 3.0 0.00 0.00 0.00 82 1021.0
20190118183156 40 193 3.0 4.0 0.00 0.00 0.00 83 1020.9
20190118182156 40 192 0.0 0.0 0.00 0.00 0.00 83 1020.9
20190118181656 39 209 0.0 1.0 0.00 0.00 0.00 84 1020.5
20190118180656 39 213 0.0 0.0 0.00 0.00 0.00 84 1020.5
20190118174155 39 213 0.0 0.0 0.00 0.00 0.00 85 1020.1
20190118172155 39 206 3.0 3.0 0.00 0.00 0.00 86 1019.9
20190118170655 38 264 2.0 2.0 0.00 0.00 0.00 87 1019.6
20190118170155 38 202 1.0 2.0 0.00 0.00 0.00 88 1019.5
20190118165155 38 219 0.0 2.0 0.00 0.00 0.00 88 1019.5
20190118164155 38 257 0.0 0.0 0.00 0.00 0.00 88 1019.3
20190118163654 38 241 0.0 0.0 0.00 0.00 0.00 88 1019.3
20190118163154 38 246 0.0 0.0 0.00 0.00 0.00 88 1019.2
20190118162154 38 246 0.0 0.0 0.00 0.00 0.00 88 1019.2
20190118160654 38 240 0.0 0.0 0.00 0.00 0.00 89 1019.0
20190118160154 38 248 0.0 0.0 0.00 0.00 0.00 89 1018.8
20190118155154 38 256 0.0 0.0 0.00 0.00 0.00 89 1018.8
20190118153153 38 202 1.0 2.0 0.00 0.00 0.00 90 1018.2
20190118152153 37 233 0.0 0.0 0.00 0.00 0.00 90 1018.2
20190118151653 37 223 3.0 6.0 0.00 0.00 0.00 91 1017.9
20190118150153 37 222 1.0 2.0 0.00 0.00 0.00 91 1017.7
20190118143152 37 206 0.0 0.0 0.00 0.00 0.00 92 1017.0
20190118142652 37 210 0.0 0.0 0.00 0.00 0.00 92 1017.0
20190118142152 37 222 0.0 0.0 0.00 0.00 0.00 92 1017.0
20190118141652 37 224 0.0 0.0 0.00 0.00 0.00 92 1016.7
20190118141152 37 188 0.0 0.0 0.00 0.00 0.00 92 1016.7
20190118140652 37 203 0.0 0.0 0.00 0.00 0.00 92 1016.7
20190118140152 37 202 2.0 3.0 0.00 0.00 0.00 92 1016.5
20190118135652 37 256 1.0 3.0 0.00 0.00 0.00 93 1016.5
20190118135152 37 261 0.0 2.0 0.00 0.00 0.00 93 1016.5
20190118134651 37 203 3.0 4.0 0.00 0.00 0.00 93 1016.3
20190118133651 37 200 2.0 4.0 0.00 0.00 0.00 93 1016.3
20190118132151 37 191 1.0 2.0 0.00 0.00 0.00 94 1016.0
20190118131651 37 215 3.0 3.0 0.00 0.00 0.00 94 1015.8
20190118130651 37 209 0.0 0.0 0.00 0.00 0.00 94 1015.8
20190118125651 37 239 0.0 0.0 0.00 0.00 0.00 95 1015.7
20190118124151 37 200 0.0 0.0 0.00 0.00 0.00 95 1015.7
20190118122150 37 202 0.0 0.0 0.00 0.00 0.00 96 1015.3
20190118121650 37 196 0.0 0.0 0.00 0.00 0.00 96 1015.2
20190118120650 37 208 0.0 0.0 0.00 0.00 0.00 96 1015.2
20190118115150 37 244 0.0 0.0 0.00 0.00 0.00 96 1015.0
20190118114650 37 244 0.0 0.0 0.00 0.00 0.00 96 1014.9
20190118113150 37 244 0.0 0.0 0.00 0.00 0.00 96 1014.8
20190118112649 37 244 0.0 0.0 0.00 0.00 0.00 96 1014.8
20190118112149 37 244 0.0 0.0 0.00 0.00 0.00 96 1014.8
20190118110649 37 244 0.0 0.0 0.00 0.00 0.00 97 1014.7
20190118110149 37 244 0.0 0.0 0.00 0.00 0.00 97 1014.5
20190118105149 37 250 0.0 0.0 0.00 0.00 0.00 97 1014.5
20190118104149 37 250 0.0 0.0 0.00 0.00 0.00 97 1014.3
20190118103648 37 250 0.0 0.0 0.00 0.00 0.00 97 1014.3
20190118103149 37 250 0.0 0.0 0.00 0.00 0.00 97 1014.0
20190118102148 37 250 0.0 0.0 0.00 0.00 0.00 97 1014.0
20190118101648 37 250 0.0 0.0 0.00 0.00 0.00 97 1013.7
20190118100648 37 250 0.0 0.0 0.00 0.00 0.00 97 1013.7
20190118094148 37 250 0.0 0.0 0.00 0.00 0.00 97 1013.0
20190118093147 37 250 0.0 0.0 0.00 0.00 0.00 97 1012.7
20190118092148 37 250 0.0 0.0 0.00 0.00 0.00 98 1012.7
20190118091647 37 208 2.0 2.0 0.00 0.00 0.00 98 1012.4
20190118091147 37 258 0.0 0.0 0.00 0.00 0.00 98 1012.4
20190118090647 37 258 0.0 0.0 0.00 0.00 0.00 98 1012.4
20190118090147 37 258 0.0 0.0 0.00 0.00 0.00 98 1012.2
20190118084647 37 258 0.0 0.0 0.00 0.00 0.00 98 1012.0
20190118083147 36 254 0.0 2.0 0.00 0.00 0.00 98 1011.7
20190118082647 35 261 0.0 2.0 0.00 0.00 0.00 97 1011.7
20190118082146 35 88 0.0 0.0 0.00 0.00 0.00 97 1011.7
20190118081647 35 61 0.0 0.0 0.00 0.00 0.00 97 1011.6
20190118074647 34 61 0.0 0.0 0.00 0.00 0.00 97 1011.2
20190118073146 34 61 0.0 0.0 0.00 0.00 0.00 97 1011.0
20190118072646 34 61 0.0 0.0 0.00 0.00 0.00 97 1011.0
20190118072146 34 61 0.0 0.0 0.00 0.00 0.00 97 1011.0
20190118070145 34 61 0.0 0.0 0.00 0.00 0.00 97 1010.7
20190118065645 34 61 0.0 0.0 0.00 0.00 0.00 97 1010.7
20190118065145 34 61 0.0 0.0 0.00 0.00 0.00 97 1010.7
20190118064645 34 61 0.0 0.0 0.00 0.00 0.00 97 1010.4
20190118064145 34 61 0.0 0.0 0.00 0.00 0.00 97 1010.4
20190118063145 34 61 0.0 0.0 0.00 0.00 0.00 97 1010.2
20190118062145 34 61 0.0 0.0 0.00 0.00 0.00 97 1010.2
20190118061644 34 61 0.0 0.0 0.00 0.00 0.00 97 1010.0
20190118061144 34 61 0.0 0.0 0.00 0.00 0.00 97 1010.0
20190118060644 34 61 0.0 0.0 0.00 0.00 0.00 97 1010.0
20190118060144 34 61 0.0 0.0 0.00 0.00 0.00 97 1009.8
20190118055144 34 61 0.0 0.0 0.00 0.00 0.00 97 1009.8
20190118054144 34 61 0.0 0.0 0.00 0.00 0.00 97 1009.6
20190118053644 34 61 0.0 0.0 0.00 0.00 0.00 97 1009.6
20190118052644 34 61 0.0 0.0 0.00 0.00 0.00 97 1009.5
20190118050644 34 61 0.0 0.0 0.00 0.00 0.00 97 1009.3
20190118045643 34 61 0.0 0.0 0.00 0.00 0.00 97 1009.2
20190118044143 34 61 0.0 0.0 0.00 0.00 0.00 97 1008.9
20190118043643 34 61 0.0 0.0 0.00 0.00 0.00 97 1008.9
20190118042143 34 61 0.0 0.0 0.00 0.00 0.00 97 1008.6
20190118041643 34 61 0.0 0.0 0.00 0.00 0.00 97 1008.1
20190118035142 34 51 0.0 0.0 0.00 0.00 0.00 97 1007.9
20190118034642 34 51 0.0 0.0 0.00 0.00 0.00 97 1007.7
20190118034142 34 51 0.0 0.0 0.00 0.00 0.00 97 1007.7
20190118033643 34 51 0.0 0.0 0.00 0.00 0.00 97 1007.7
20190118032142 34 51 0.0 0.0 0.00 0.00 0.00 97 1007.4
20190118030642 34 61 0.0 0.0 0.00 0.00 0.00 97 1007.2
20190118030142 34 61 0.0 0.0 0.00 0.00 0.00 97 1007.1
20190118025642 34 61 0.0 0.0 0.00 0.00 0.00 97 1007.1
20190118023641 34 58 0.0 0.0 0.00 0.00 0.00 97 1007.0
20190118022641 34 58 0.0 0.0 0.00 0.00 0.00 97 1006.7
20190118022141 34 58 0.0 0.0 0.00 0.00 0.00 97 1006.7
20190118021141 34 58 0.0 0.0 0.00 0.00 0.00 97 1006.5
20190118020641 34 58 0.0 0.0 0.00 0.00 0.00 97 1006.5
20190118015641 34 48 0.0 0.0 0.00 0.00 0.00 97 1006.4
20190118015141 34 55 0.0 0.0 0.00 0.00 0.00 97 1006.4
20190118014641 34 48 0.0 0.0 0.00 0.00 0.00 97 1006.4
20190118014141 34 48 0.0 0.0 0.00 0.00 0.00 97 1006.4
20190118013140 34 55 2.0 3.0 0.00 0.00 0.00 97 1006.1
20190118010640 34 47 4.0 6.0 0.00 0.00 0.00 96 1005.9
20190118010140 34 61 3.0 3.0 0.00 0.00 0.00 96 1005.7
20190118005640 34 61 3.0 4.0 0.00 0.00 0.00 96 1005.7
20190118004140 34 44 4.0 4.0 0.00 0.00 0.00 96 1005.7
20190118003641 34 41 4.0 4.0 0.00 0.00 0.00 96 1005.7
20190118002639 34 48 2.0 2.0 0.00 0.00 0.00 96 1005.6
20190118002139 34 48 3.0 3.0 0.00 0.00 0.00 96 1005.6
20190118001139 34 40 2.0 4.0 0.00 0.00 0.00 96 1005.6
20190118000639 34 44 3.0 3.0 0.00 0.00 0.00 96 1005.6
20190117235639 34 55 2.0 3.0 0.00 0.00 0.00 96 1005.4
20190117234639 34 55 0.0 0.0 0.00 0.00 0.00 96 1005.3
20190117233638 34 55 0.0 0.0 0.00 0.00 0.00 96 1005.3
20190117233138 34 55 0.0 0.0 0.00 0.00 0.00 96 1005.1
20190117232638 34 34 0.0 0.0 0.00 0.00 0.00 96 1005.1
20190117231638 34 51 0.0 0.0 0.00 0.00 0.00 96 1004.9